When you browse on this site, cookies collect data to enhance your experience and personalize the content and advertising you see.
Visit our Privacy Policy to learn more. By continuing to use the site, you agree to this use of cookies and data.
  • Em Portugal
  • Lista de países
  • Para 7 dias
  • Temperatura da água
  • Mapas de satélite
  • Mapa do tempo
  • Widgets de tempo
  • user-avatar
    Iniciar Sessão

    Previsão horária em Kalat

    Hoje, 24 Maio, Sexta-feira

    Tempo Temperatura Precipitação Vento Pressão Humidade
    00:00 +1°C° 1 mm 2 m/s 475 mmHg 84%
    01:00 +1°C° 1 mm 2 m/s 475 mmHg 85%
    02:00 0°C° 1 mm 3 m/s 475 mmHg 86%
    03:00 -1°C° 0.3 mm 3 m/s 474 mmHg 86%
    04:00 -1°C° 0.3 mm 3 m/s 474 mmHg 85%
    05:00 -4°C° 0 mm 3 m/s 472 mmHg 82%
    06:00 -2°C° 0 mm 3 m/s 474 mmHg 80%
    07:00 0°C° 0 mm 3 m/s 475 mmHg 77%
    08:00 +1°C° 0 mm 3 m/s 476 mmHg 74%
    09:00 +1°C° 0.1 mm 3 m/s 476 mmHg 74%
    10:00 +2°C° 0.1 mm 3 m/s 476 mmHg 75%
    11:00 +2°C° 0.1 mm 3 m/s 477 mmHg 75%
    12:00 +4°C° 0.3 mm 2 m/s 477 mmHg 73%
    13:00 +4°C° 0.3 mm 2 m/s 477 mmHg 72%
    14:00 +4°C° 0.3 mm 2 m/s 478 mmHg 71%
    15:00 +4°C° 0.3 mm 2 m/s 478 mmHg 70%
    16:00 +3°C° 0.3 mm 3 m/s 478 mmHg 70%
    17:00 +2°C° 0.3 mm 3 m/s 478 mmHg 69%
    18:00 +2°C° 0.2 mm 3 m/s 477 mmHg 72%
    19:00 +1°C° 0.2 mm 3 m/s 477 mmHg 75%
    20:00 0°C° 0.2 mm 3 m/s 477 mmHg 78%
    21:00 -1°C° 0 mm 2 m/s 476 mmHg 79%
    22:00 -2°C° 0 mm 2 m/s 476 mmHg 79%
    23:00 -3°C° 0 mm 2 m/s 475 mmHg 80%

    Amanhã, 25 Maio, Sábado

    Tempo Temperatura Precipitação Vento Pressão Humidade
    00:00 -3°C° 0 mm 2 m/s 475 mmHg 81%
    01:00 -4°C° 0 mm 2 m/s 474 mmHg 82%
    02:00 -3°C° 0 mm 1 m/s 473 mmHg 83%
    03:00 -3°C° 0 mm 1 m/s 473 mmHg 82%
    04:00 -3°C° 0 mm 1 m/s 473 mmHg 81%
    05:00 -4°C° 0 mm 1 m/s 472 mmHg 81%
    06:00 -4°C° 0 mm 2 m/s 473 mmHg 75%
    07:00 -3°C° 0 mm 2 m/s 475 mmHg 69%
    08:00 -2°C° 0 mm 2 m/s 476 mmHg 63%
    09:00 -1°C° 0 mm 3 m/s 476 mmHg 60%
    10:00 0°C° 0 mm 3 m/s 477 mmHg 57%
    11:00 +1°C° 0 mm 3 m/s 477 mmHg 54%
    12:00 +2°C° 0 mm 3 m/s 477 mmHg 55%
    13:00 +2°C° 0 mm 3 m/s 477 mmHg 56%
    14:00 +4°C° 0 mm 2 m/s 478 mmHg 58%
    15:00 +3°C° 0.1 mm 3 m/s 477 mmHg 59%
    16:00 +2°C° 0.1 mm 3 m/s 477 mmHg 60%
    17:00 +2°C° 0.1 mm 3 m/s 477 mmHg 62%
    18:00 +1°C° 0.1 mm 3 m/s 476 mmHg 65%
    19:00 -1°C° 0.1 mm 3 m/s 475 mmHg 68%
    20:00 -2°C° 0.1 mm 3 m/s 475 mmHg 72%
    21:00 -4°C° 0 mm 3 m/s 474 mmHg 73%
    22:00 -3°C° 0 mm 2 m/s 474 mmHg 75%
    23:00 -4°C° 0 mm 2 m/s 474 mmHg 76%

    Depois de amanhã, 26 Maio, Domingo

    Tempo Temperatura Precipitação Vento Pressão Humidade
    00:00 -4°C° 0 mm 2 m/s 474 mmHg 76%
    01:00 -5°C° 0 mm 2 m/s 473 mmHg 76%
    02:00 -5°C° 0 mm 2 m/s 473 mmHg 76%
    03:00 -6°C° 0 mm 2 m/s 473 mmHg 77%
    04:00 -6°C° 0 mm 2 m/s 473 mmHg 78%
    05:00 -6°C° 0 mm 2 m/s 472 mmHg 80%
    06:00 -6°C° 0 mm 3 m/s 473 mmHg 75%
    07:00 -5°C° 0 mm 3 m/s 474 mmHg 71%
    08:00 -4°C° 0 mm 3 m/s 474 mmHg 67%
    09:00 -2°C° 0 mm 3 m/s 475 mmHg 63%
    10:00 -1°C° 0 mm 3 m/s 476 mmHg 60%
    11:00 -1°C° 0 mm 3 m/s 476 mmHg 56%
    12:00 0°C° 0 mm 3 m/s 477 mmHg 56%
    13:00 0°C° 0 mm 3 m/s 477 mmHg 56%
    14:00 +1°C° 0 mm 3 m/s 477 mmHg 56%
    15:00 +1°C° 0 mm 3 m/s 477 mmHg 56%
    16:00 +1°C° 0 mm 3 m/s 477 mmHg 57%
    17:00 +1°C° 0 mm 3 m/s 477 mmHg 57%
    18:00 0°C° 0 mm 3 m/s 476 mmHg 60%
    19:00 -2°C° 0 mm 3 m/s 476 mmHg 63%
    20:00 -3°C° 0 mm 2 m/s 475 mmHg 66%
    21:00 -3°C° 0 mm 2 m/s 475 mmHg 67%
    22:00 -4°C° 0 mm 2 m/s 475 mmHg 67%
    23:00 -4°C° 0 mm 2 m/s 475 mmHg 68%

    27 Maio, Segunda-feira

    Tempo Temperatura Precipitação Vento Pressão Humidade
    00:00 -4°C° 0 mm 2 m/s 474 mmHg 67%
    01:00 -3°C° 0 mm 1 m/s 474 mmHg 67%
    02:00 -3°C° 0 mm 1 m/s 473 mmHg 66%
    03:00 -3°C° 0 mm 1 m/s 473 mmHg 65%
    04:00 -4°C° 0 mm 1 m/s 473 mmHg 64%
    05:00 -4°C° 0 mm 1 m/s 473 mmHg 63%
    06:00 -2°C° 0 mm 1 m/s 474 mmHg 57%
    07:00 -1°C° 0 mm 1 m/s 475 mmHg 52%
    08:00 +1°C° 0 mm 1 m/s 476 mmHg 46%
    09:00 +2°C° 0 mm 2 m/s 477 mmHg 42%
    10:00 +3°C° 0 mm 2 m/s 478 mmHg 38%
    11:00 +4°C° 0 mm 2 m/s 479 mmHg 34%
    12:00 +5°C° 0 mm 2 m/s 479 mmHg 35%
    13:00 +5°C° 0 mm 2 m/s 479 mmHg 35%
    14:00 +6°C° 0 mm 2 m/s 479 mmHg 36%
    15:00 +4°C° 0 mm 3 m/s 479 mmHg 37%
    16:00 +4°C° 0 mm 3 m/s 479 mmHg 37%
    17:00 +4°C° 0 mm 3 m/s 478 mmHg 38%
    18:00 +3°C° 0 mm 3 m/s 478 mmHg 41%
    19:00 +2°C° 0 mm 2 m/s 477 mmHg 44%
    20:00 +1°C° 0 mm 2 m/s 476 mmHg 47%
    21:00 -1°C° 0 mm 2 m/s 476 mmHg 49%
    22:00 +1°C° 0 mm 1 m/s 476 mmHg 51%
    23:00 0°C° 0 mm 1 m/s 476 mmHg 53%

    28 Maio, Terça-feira

    Tempo Temperatura Precipitação Vento Pressão Humidade
    00:00 0°C° 0 mm 1 m/s 475 mmHg 51%
    01:00 -1°C° 0 mm 1 m/s 475 mmHg 50%
    02:00 -1°C° 0 mm 1 m/s 474 mmHg 48%
    03:00 -1°C° 0 mm 1 m/s 474 mmHg 46%
    04:00 -2°C° 0 mm 1 m/s 474 mmHg 44%
    05:00 -2°C° 0 mm 1 m/s 474 mmHg 42%
    06:00 0°C° 0 mm 1 m/s 475 mmHg 38%
    07:00 -1°C° 0 mm 2 m/s 476 mmHg 34%
    08:00 +2°C° 0 mm 2 m/s 477 mmHg 30%
    09:00 +2°C° 0 mm 3 m/s 478 mmHg 28%
    10:00 +3°C° 0 mm 3 m/s 479 mmHg 26%
    11:00 +5°C° 0 mm 3 m/s 480 mmHg 24%
    12:00 +5°C° 0 mm 3 m/s 480 mmHg 25%
    13:00 +7°C° 0 mm 3 m/s 480 mmHg 26%
    14:00 +7°C° 0 mm 3 m/s 480 mmHg 27%
    15:00 +7°C° 0 mm 3 m/s 480 mmHg 28%
    16:00 +5°C° 0 mm 3 m/s 479 mmHg 29%
    17:00 +5°C° 0 mm 3 m/s 479 mmHg 30%
    18:00 +4°C° 0 mm 3 m/s 479 mmHg 32%
    19:00 +2°C° 0 mm 3 m/s 478 mmHg 34%
    20:00 +2°C° 0 mm 2 m/s 477 mmHg 36%
    21:00 +1°C° 0 mm 2 m/s 477 mmHg 37%
    22:00 +1°C° 0 mm 2 m/s 477 mmHg 38%
    23:00 +1°C° 0 mm 1 m/s 476 mmHg 39%

    29 Maio, Quarta-feira

    Tempo Temperatura Precipitação Vento Pressão Humidade
    00:00 +1°C° 0 mm 1 m/s 476 mmHg 37%
    01:00 0°C° 0 mm 1 m/s 475 mmHg 36%
    02:00 0°C° 0 mm 1 m/s 475 mmHg 34%
    03:00 0°C° 0 mm 1 m/s 475 mmHg 32%
    04:00 -1°C° 0 mm 1 m/s 474 mmHg 31%
    05:00 -1°C° 0 mm 1 m/s 474 mmHg 29%
    06:00 +1°C° 0 mm 1 m/s 475 mmHg 29%
    07:00 +2°C° 0 mm 1 m/s 477 mmHg 28%
    08:00 +4°C° 0 mm 1 m/s 478 mmHg 28%
    09:00 +6°C° 0 mm 1 m/s 479 mmHg 28%
    10:00 +6°C° 0 mm 2 m/s 479 mmHg 28%
    11:00 +7°C° 0 mm 2 m/s 480 mmHg 27%
    12:00 +8°C° 0 mm 2 m/s 480 mmHg 28%
    13:00 +8°C° 0 mm 2 m/s 480 mmHg 29%
    14:00 +9°C° 0 mm 2 m/s 480 mmHg 30%
    15:00 +8°C° 0 mm 2 m/s 480 mmHg 30%
    16:00 +8°C° 0 mm 2 m/s 480 mmHg 29%
    17:00 +8°C° 0 mm 2 m/s 480 mmHg 28%
    18:00 +7°C° 0 mm 2 m/s 479 mmHg 31%
    19:00 +5°C° 0 mm 2 m/s 478 mmHg 34%
    20:00 +4°C° 0 mm 2 m/s 477 mmHg 36%
    21:00 +4°C° 0 mm 1 m/s 477 mmHg 36%
    22:00 +4°C° 0 mm 1 m/s 477 mmHg 37%
    23:00 +3°C° 0 mm 1 m/s 477 mmHg 37%
    Mostrar mais